This demonstration page uses our WeatherBlox Daily Observations layout. Learn more.

Left ArrowRight Arrow

38.20091, -84.87328

Hourly Observations for August 4, 2022

Temp ( °F °C ) Dew Point ( °F °C ) Humidity (%) Winds ( mph kmh ) Pressure ( in mb ) Visibility ( mi km ) Precip ( " mm )
12:53 am 00:53 Mostly Cloudy 80 26.7 74 23.3 82 82 SSE 5 7 29.97 1015 10 16 0.00 0.00
1:53 am 01:53 Mostly Cloudy 80 26.7 71 21.7 74 74 SSW 9 15 29.98 1015 10 16 0.00 0.00
2:03 am 02:03 Mostly Cloudy with Nearby Thunderstorms 79 26.1 70 21.1 74 74 SSW 14 22 29.97 1015 10 16 0.00 0.00
2:19 am 02:19 Partly Cloudy 80 26.7 67 19.4 64 64 SW 13 20 29.97 1015 10 16 0.00 0.00
2:53 am 02:53 Mostly Cloudy 75 23.9 69 20.6 82 82 SSE 7 11 29.98 1015 10 16 0.06 1.52
3:53 am 03:53 Mostly Clear 77 25 68 20 74 74 S 6 9 29.99 1016 10 16 0.00 0.00
4:53 am 04:53 Mostly Clear 73 22.8 68 20 84 84 Calm 29.99 1016 10 16 0.00 0.00
5:53 am 05:53 Clear 72 22.2 69 20.6 91 91 Calm 29.98 1015 10 16 0.00 0.00
6:53 am 06:53 Sunny 72 22.2 67 19.4 84 84 SSE 5 7 30.00 1016 10 16 0.00 0.00
7:53 am 07:53 Sunny 74 23.3 68 20 82 82 S 6 9 30.01 1016 10 16 0.00 0.00
8:53 am 08:53 Sunny 77 25 69 20.6 77 77 SSW 10 17 30.03 1017 10 16 0.00 0.00
9:53 am 09:53 Sunny 80 26.7 71 21.7 74 74 WSW 8 13 30.04 1017 10 16 0.00 0.00
10:53 am 10:53 Sunny 83 28.3 73 22.8 72 72 SW 6 9 30.05 1018 10 16 0.00 0.00
11:53 am 11:53 Mostly Sunny 84 28.9 74 23.3 72 72 SSW 5 7 30.06 1018 10 16 0.00 0.00
12:53 pm 12:53 Partly Cloudy 86 30 74 23.3 67 67 SW 8 13 30.05 1018 10 16 0.00 0.00
1:53 pm 13:53 Partly Cloudy 86 30 74 23.3 67 67 SSW 7 11 30.03 1017 10 16 0.00 0.00
2:53 pm 14:53 Sunny 86 30 73 22.8 65 65 WSW 8 13 30.02 1017 10 16 0.00 0.00
3:53 pm 15:53 Mostly Cloudy 85 29.4 74 23.3 70 70 WSW 7 11 30.01 1016 10 16 0.00 0.00
4:53 pm 16:53 Sunny 86 30 72 22.2 63 63 SW 12 19 30.01 1016 10 16 0.00 0.00
5:53 pm 17:53 Partly Cloudy with Light Rain 81 27.2 70 21.1 69 69 VRB 3 6 30.02 1017 10 16 0.00 0.00
6:53 pm 18:53 Mostly Sunny 82 27.8 71 21.7 69 69 S 5 7 30.02 1017 10 16 0.00 0.00
7:53 pm 19:53 Sunny 80 26.7 70 21.1 71 71 SSE 5 7 30.02 1017 10 16 0.00 0.00
8:53 pm 20:53 Mostly Clear 78 25.6 71 21.7 79 79 ESE 6 9 30.03 1017 10 16 0.00 0.00
9:53 pm 21:53 Clear 77 25 70 21.1 79 79 S 3 6 30.04 1017 10 16 0.00 0.00
10:53 pm 22:53 Clear 76 24.4 71 21.7 85 85 SSE 3 6 30.05 1018 10 16 0.00 0.00
11:53 pm 23:53 Mostly Clear 76 24.4 71 21.7 85 85 Calm 30.06 1018 10 16 0.00 0.00

Powered by AerisWeather